QPF
0.09 0.10 0.09 0.08 0.06 0.06 0.06 0.10 0.13 0.15 0.20 0.21 0.18 0.14 0.11 0.10 0.09 0.06 0.03 0.04 0.06 0.08 0.11 0.15 0.15 0.12 0.10 0.08 0.06 0.05 0.04 0.03 0.02 0.01 0.00 0.00 0.00 0.00 0.00 0.00 0.00 0.00 0.00
0.03 0.03 0.04 0.05 0.04 0.04 0.05 0.06 0.08 0.10 0.13 0.16 0.17 0.15 0.12 0.09 0.09 0.08 0.05 0.04 0.07 0.09 0.12 0.15 0.17 0.16 0.13 0.12 0.08 0.06 0.06 0.04 0.03 0.03 0.02 0.01 0.00 0.00 0.00 0.00 0.00 0.00 0.00
0.01 0.01 0.01 0.02 0.02 0.03 0.04 0.04 0.05 0.06 0.07 0.08 0.10 0.11 0.11 0.09 0.08 0.08 0.08 0.06 0.05 0.08 0.12 0.14 0.16 0.17 0.17 0.15 0.13 0.11 0.07 0.05 0.05 0.04 0.03 0.03 0.02 0.01 0.00 0.00 0.00 0.00 0.00
0.01 0.00 0.00 0.00 0.00 0.01 0.01 0.02 0.03 0.04 0.03 0.04 0.06 0.09 0.09 0.09 0.10 0.10 0.10 0.10 0.08 0.07 0.10 0.14 0.15 0.17 0.20 0.20 0.18 0.17 0.12 0.08 0.06 0.04 0.03 0.03 0.04 0.03 0.02 0.01 0.00 0.00 0.00
0.00 0.00 0.00 0.00 0.00 0.00 0.00 0.01 0.02 0.02 0.02 0.03 0.02 0.04 0.06 0.09 0.11 0.13 0.14 0.12 0.12 0.10 0.09 0.10 0.16 0.18 0.21 0.25 0.25 0.25 0.21 0.13 0.08 0.06 0.04 0.03 0.04 0.04 0.04 0.03 0.02 0.01 0.01
0.00 0.00 0.00 0.00 0.00 0.00 0.00 0.00 0.01 0.02 0.02 0.03 0.03 0.04 0.05 0.08 0.11 0.12 0.13 0.14 0.13 0.10 0.09 0.09 0.12 0.14 0.20 0.26 0.28 0.31 0.30 0.25 0.17 0.10 0.07 0.05 0.04 0.04 0.04 0.04 0.05 0.04 0.02
0.00 0.00 0.00 0.00 0.00 0.00 0.00 0.00 0.00 0.01 0.01 0.02 0.03 0.04 0.05 0.07 0.08 0.08 0.10 0.13 0.14 0.12 0.11 0.10 0.10 0.10 0.11 0.16 0.20 0.23 0.27 0.27 0.22 0.16 0.11 0.08 0.06 0.04 0.03 0.03 0.04 0.06 0.05
0.00 0.00 0.00 0.00 0.00 0.00 0.00 0.00 0.00 0.00 0.01 0.02 0.04 0.05 0.05 0.04 0.05 0.06 0.09 0.10 0.10 0.12 0.12 0.10 0.10 0.10 0.10 0.10 0.09 0.12 0.18 0.21 0.22 0.20 0.15 0.10 0.07 0.04 0.03 0.02 0.02 0.04 0.06
0.00 0.00 0.00 0.00 0.00 0.00 0.00 0.00 0.00 0.01 0.01 0.02 0.03 0.05 0.06 0.07 0.04 0.03 0.05 0.08 0.10 0.10 0.10 0.10 0.09 0.08 0.08 0.09 0.07 0.08 0.13 0.15 0.20 0.24 0.21 0.15 0.09 0.05 0.04 0.02 0.02 0.02 0.05
0.00 0.00 0.00 0.00 0.00 0.00 0.00 0.00 0.00 0.01 0.01 0.01 0.02 0.02 0.04 0.07 0.08 0.05 0.04 0.05 0.07 0.09 0.09 0.09 0.08 0.07 0.07 0.07 0.06 0.05 0.05 0.08 0.13 0.20 0.22 0.18 0.12 0.06 0.03 0.03 0.03 0.03 0.03
0.00 0.00 0.00 0.00 0.00 0.00 0.00 0.00 0.00 0.01 0.01 0.01 0.01 0.01 0.02 0.03 0.05 0.06 0.05 0.04 0.05 0.06 0.06 0.06 0.07 0.07 0.06 0.07 0.07 0.05 0.05 0.06 0.08 0.13 0.16 0.16 0.15 0.10 0.05 0.04 0.06 0.07 0.05
0.00 0.00 0.00 0.00 0.00 0.00 0.00 0.00 0.00 0.00 0.01 0.01 0.01 0.00 0.01 0.02 0.04 0.05 0.04 0.04 0.04 0.04 0.05 0.06 0.05 0.05 0.06 0.07 0.06 0.05 0.05 0.07 0.07 0.07 0.08 0.10 0.12 0.11 0.08 0.07 0.08 0.09 0.10
0.00 0.00 0.00 0.00 0.00 0.00 0.00 0.00 0.00 0.00 0.00 0.00 0.00 0.00 0.00 0.01 0.02 0.03 0.03 0.03 0.02 0.03 0.04 0.05 0.04 0.06 0.06 0.07 0.07 0.08 0.07 0.08 0.07 0.06 0.05 0.05 0.06 0.08 0.07 0.07 0.09 0.11 0.13
0.00 0.00 0.00 0.00 0.00 0.00 0.00 0.00 0.00 0.00 0.00 0.00 0.00 0.00 0.00 0.00 0.01 0.01 0.03 0.03 0.03 0.02 0.02 0.03 0.04 0.06 0.07 0.08 0.09 0.12 0.10 0.09 0.08 0.07 0.05 0.04 0.04 0.04 0.04 0.03 0.04 0.05 0.05
0.00 0.00 0.00 0.00 0.00 0.00 0.00 0.00 0.00 0.00 0.00 0.00 0.00 0.00 0.00 0.00 0.00 0.00 0.01 0.02 0.03 0.03 0.02 0.02 0.04 0.06 0.08 0.09 0.11 0.11 0.09 0.09 0.09 0.07 0.06 0.04 0.04 0.04 0.03 0.02 0.02 0.02 0.02
0.00 0.00 0.00 0.00 0.00 0.00 0.00 0.00 0.00 0.00 0.00 0.00 0.00 0.00 0.00 0.00 0.00 0.00 0.00 0.01 0.02 0.03 0.02 0.02 0.04 0.05 0.08 0.09 0.12 0.12 0.11 0.12 0.11 0.08 0.06 0.04 0.03 0.03 0.02 0.02 0.02 0.01 0.01
0.00 0.00 0.00 0.00 0.00 0.00 0.00 0.00 0.00 0.00 0.00 0.00 0.00 0.00 0.00 0.00 0.00 0.00 0.00 0.00 0.01 0.02 0.02 0.02 0.03 0.05 0.08 0.11 0.11 0.12 0.13 0.12 0.11 0.10 0.08 0.05 0.03 0.02 0.02 0.01 0.01 0.01 0.01
0.00 0.00 0.00 0.00 0.00 0.00 0.00 0.00 0.00 0.00 0.00 0.00 0.00 0.00 0.00 0.00 0.00 0.00 0.00 0.00 0.00 0.01 0.02 0.03 0.04 0.07 0.09 0.12 0.14 0.14 0.13 0.12 0.10 0.09 0.07 0.05 0.04 0.02 0.02 0.02 0.01 0.01 0.01
0.00 0.00 0.00 0.00 0.00 0.00 0.00 0.00 0.00 0.00 0.00 0.00 0.00 0.00 0.00 0.00 0.00 0.00 0.00 0.00 0.00 0.01 0.02 0.03 0.05 0.08 0.12 0.13 0.14 0.13 0.13 0.12 0.10 0.08 0.06 0.04 0.03 0.02 0.02 0.01 0.01 0.01 0.01
0.00 0.00 0.00 0.00 0.00 0.00 0.00 0.00 0.00 0.00 0.00 0.00 0.00 0.00 0.00 0.00 0.00 0.00 0.00 0.00 0.00 0.01 0.02 0.03 0.05 0.08 0.13 0.16 0.15 0.12 0.11 0.11 0.08 0.06 0.05 0.04 0.03 0.01 0.01 0.01 0.01 0.00 0.00
0.00 0.00 0.00 0.00 0.00 0.00 0.00 0.00 0.00 0.00 0.00 0.00 0.00 0.00 0.00 0.00 0.00 0.00 0.00 0.00 0.00 0.00 0.01 0.03 0.05 0.08 0.13 0.17 0.17 0.14 0.13 0.11 0.09 0.06 0.04 0.02 0.01 0.01 0.01 0.01 0.01 0.01 0.01
0.00 0.00 0.00 0.00 0.00 0.00 0.00 0.00 0.00 0.00 0.00 0.00 0.00 0.00 0.00 0.00 0.00 0.00 0.00 0.00 0.00 0.00 0.01 0.03 0.05 0.07 0.10 0.18 0.21 0.22 0.17 0.11 0.07 0.04 0.03 0.02 0.01 0.01 0.01 0.00 0.01 0.01 0.01
0.00 0.00 0.00 0.00 0.00 0.00 0.00 0.00 0.00 0.00 0.00 0.00 0.00 0.00 0.00 0.00 0.00 0.00 0.00 0.00 0.00 0.00 0.01 0.02 0.05 0.07 0.08 0.15 0.23 0.25 0.23 0.17 0.09 0.05 0.03 0.03 0.02 0.01 0.01 0.01 0.02 0.01 0.01
0.00 0.00 0.00 0.00 0.00 0.00 0.00 0.00 0.00 0.00 0.00 0.00 0.00 0.00 0.00 0.00 0.00 0.00 0.00 0.00 0.00 0.01 0.01 0.01 0.02 0.06 0.08 0.14 0.24 0.29 0.32 0.28 0.18 0.09 0.04 0.02 0.02 0.02 0.02 0.02 0.03 0.02 0.01
0.00 0.00 0.00 0.00 0.00 0.00 0.00 0.00 0.00 0.00 0.00 0.00 0.00 0.00 0.00 0.00 0.00 0.00 0.00 0.01 0.01 0.01 0.01 0.02 0.02 0.04 0.08 0.13 0.23 0.35 0.38 0.36 0.25 0.12 0.05 0.02 0.02 0.02 0.02 0.02 0.02 0.04 0.03
0.00 0.00 0.00 0.00 0.00 0.00 0.00 0.00 0.00 0.00 0.00 0.00 0.00 0.00 0.00 0.00 0.01 0.01 0.01 0.01 0.01 0.01 0.02 0.02 0.02 0.03 0.06 0.12 0.20 0.31 0.37 0.35 0.27 0.16 0.06 0.02 0.01 0.01 0.02 0.02 0.01 0.01 0.02
MSLP
1014.84 1014.76 1014.68 1014.64 1014.67 1014.75 1014.87 1015.01 1015.14 1015.22 1015.24 1015.20 1015.11 1015.02 1014.95 1014.93 1014.99 1015.13 1015.33 1015.56 1015.80 1016.04 1016.25 1016.45 1016.66 1016.88 1017.15 1017.46 1017.82 1018.22 1018.63 1019.04 1019.43 1019.79 1020.13 1020.46 1020.78 1021.10 1021.43 1021.77 1022.11 1022.44 1022.75
1014.73 1014.62 1014.53 1014.51 1014.55 1014.65 1014.79 1014.93 1015.05 1015.10 1015.08 1014.99 1014.85 1014.69 1014.55 1014.46 1014.44 1014.51 1014.65 1014.83 1015.05 1015.28 1015.51 1015.74 1015.99 1016.27 1016.58 1016.93 1017.32 1017.73 1018.16 1018.58 1018.98 1019.37 1019.74 1020.10 1020.46 1020.82 1021.19 1021.56 1021.92 1022.26 1022.59
1014.63 1014.50 1014.43 1014.43 1014.50 1014.63 1014.78 1014.92 1015.01 1015.03 1014.96 1014.80 1014.60 1014.37 1014.15 1013.99 1013.90 1013.88 1013.95 1014.07 1014.25 1014.45 1014.69 1014.95 1015.24 1015.57 1015.93 1016.33 1016.76 1017.20 1017.64 1018.07 1018.48 1018.88 1019.27 1019.66 1020.06 1020.46 1020.87 1021.27 1021.66 1022.03 1022.38
1014.57 1014.44 1014.39 1014.42 1014.53 1014.68 1014.83 1014.96 1015.01 1014.98 1014.84 1014.63 1014.35 1014.06 1013.78 1013.54 1013.37 1013.28 1013.27 1013.33 1013.45 1013.62 1013.85 1014.12 1014.45 1014.83 1015.24 1015.69 1016.16 1016.62 1017.08 1017.52 1017.94 1018.35 1018.76 1019.17 1019.59 1020.03 1020.47 1020.91 1021.33 1021.73 1022.11
1014.56 1014.44 1014.41 1014.48 1014.61 1014.77 1014.91 1015.01 1015.01 1014.91 1014.72 1014.44 1014.11 1013.76 1013.43 1013.14 1012.91 1012.75 1012.66 1012.64 1012.70 1012.83 1013.03 1013.30 1013.65 1014.07 1014.53 1015.02 1015.53 1016.03 1016.51 1016.96 1017.39 1017.80 1018.22 1018.64 1019.08 1019.55 1020.02 1020.49 1020.94 1021.37 1021.78
1014.60 1014.48 1014.47 1014.56 1014.71 1014.86 1014.98 1015.03 1014.97 1014.81 1014.56 1014.24 1013.87 1013.50 1013.14 1012.82 1012.55 1012.33 1012.18 1012.08 1012.06 1012.13 1012.28 1012.53 1012.88 1013.31 1013.81 1014.34 1014.89 1015.42 1015.92 1016.38 1016.82 1017.24 1017.65 1018.09 1018.54 1019.02 1019.51 1020.00 1020.48 1020.94 1021.36
1014.67 1014.55 1014.55 1014.64 1014.78 1014.91 1014.99 1014.99 1014.88 1014.67 1014.38 1014.04 1013.67 1013.30 1012.95 1012.63 1012.34 1012.08 1011.86 1011.68 1011.58 1011.56 1011.64 1011.85 1012.16 1012.59 1013.10 1013.65 1014.22 1014.77 1015.29 1015.77 1016.21 1016.64 1017.06 1017.50 1017.96 1018.44 1018.94 1019.45 1019.95 1020.42 1020.87
1014.75 1014.62 1014.62 1014.70 1014.81 1014.91 1014.94 1014.89 1014.74 1014.50 1014.20 1013.87 1013.53 1013.20 1012.89 1012.59 1012.30 1012.01 1011.73 1011.47 1011.27 1011.15 1011.14 1011.26 1011.52 1011.91 1012.39 1012.94 1013.51 1014.08 1014.61 1015.09 1015.54 1015.97 1016.40 1016.84 1017.31 1017.80 1018.31 1018.83 1019.34 1019.82 1020.28
1014.83 1014.69 1014.66 1014.71 1014.79 1014.84 1014.83 1014.74 1014.56 1014.32 1014.04 1013.76 1013.48 1013.22 1012.97 1012.71 1012.43 1012.12 1011.79 1011.45 1011.14 1010.90 1010.78 1010.79 1010.96 1011.27 1011.71 1012.22 1012.76 1013.31 1013.83 1014.32 1014.78 1015.21 1015.65 1016.10 1016.57 1017.08 1017.60 1018.13 1018.64 1019.14 1019.61
1014.90 1014.74 1014.69 1014.70 1014.73 1014.74 1014.68 1014.56 1014.38 1014.17 1013.94 1013.72 1013.53 1013.36 1013.18 1012.98 1012.72 1012.39 1012.00 1011.58 1011.16 1010.80 1010.55 1010.44 1010.49 1010.70 1011.04 1011.48 1011.97 1012.47 1012.97 1013.44 1013.89 1014.33 1014.77 1015.24 1015.74 1016.26 1016.80 1017.35 1017.88 1018.40 1018.88
1014.94 1014.77 1014.69 1014.66 1014.65 1014.61 1014.53 1014.40 1014.23 1014.05 1013.89 1013.75 1013.65 1013.57 1013.47 1013.32 1013.08 1012.74 1012.31 1011.81 1011.29 1010.82 1010.43 1010.19 1010.11 1010.19 1010.42 1010.76 1011.16 1011.59 1012.03 1012.47 1012.90 1013.34 1013.80 1014.29 1014.81 1015.37 1015.94 1016.51 1017.07 1017.61 1018.12
1014.96 1014.78 1014.68 1014.61 1014.56 1014.49 1014.38 1014.24 1014.09 1013.96 1013.86 1013.81 1013.80 1013.79 1013.76 1013.65 1013.44 1013.09 1012.62 1012.07 1011.48 1010.90 1010.41 1010.05 1009.84 1009.79 1009.89 1010.10 1010.39 1010.72 1011.09 1011.47 1011.87 1012.30 1012.76 1013.28 1013.84 1014.43 1015.04 1015.65 1016.25 1016.81 1017.34
1014.93 1014.76 1014.63 1014.54 1014.45 1014.35 1014.22 1014.09 1013.96 1013.87 1013.82 1013.84 1013.89 1013.94 1013.95 1013.88 1013.69 1013.35 1012.87 1012.29 1011.65 1011.02 1010.45 1010.00 1009.68 1009.51 1009.48 1009.55 1009.71 1009.94 1010.20 1010.51 1010.86 1011.27 1011.74 1012.28 1012.87 1013.51 1014.17 1014.82 1015.45 1016.04 1016.60
1014.85 1014.68 1014.55 1014.43 1014.31 1014.18 1014.04 1013.90 1013.78 1013.72 1013.71 1013.76 1013.85 1013.93 1013.98 1013.93 1013.76 1013.44 1012.98 1012.41 1011.78 1011.14 1010.55 1010.04 1009.65 1009.38 1009.23 1009.18 1009.21 1009.30 1009.46 1009.69 1009.99 1010.37 1010.83 1011.38 1012.00 1012.67 1013.36 1014.05 1014.71 1015.33 1015.90
1014.68 1014.52 1014.38 1014.24 1014.10 1013.95 1013.79 1013.64 1013.53 1013.47 1013.47 1013.53 1013.63 1013.73 1013.78 1013.76 1013.62 1013.33 1012.92 1012.41 1011.83 1011.23 1010.66 1010.15 1009.73 1009.40 1009.15 1008.99 1008.91 1008.89 1008.94 1009.08 1009.32 1009.66 1010.11 1010.65 1011.29 1011.97 1012.68 1013.38 1014.06 1014.68 1015.26
1014.41 1014.26 1014.11 1013.96 1013.79 1013.62 1013.44 1013.28 1013.15 1013.08 1013.07 1013.12 1013.21 1013.30 1013.36 1013.35 1013.25 1013.03 1012.70 1012.28 1011.79 1011.28 1010.78 1010.32 1009.90 1009.54 1009.24 1009.00 1008.82 1008.71 1008.67 1008.73 1008.91 1009.20 1009.63 1010.16 1010.78 1011.46 1012.16 1012.85 1013.51 1014.12 1014.68
1014.02 1013.88 1013.72 1013.56 1013.37 1013.18 1012.98 1012.80 1012.65 1012.56 1012.52 1012.55 1012.61 1012.69 1012.75 1012.76 1012.70 1012.56 1012.33 1012.02 1011.66 1011.28 1010.88 1010.49 1010.12 1009.77 1009.45 1009.16 1008.92 1008.74 1008.64 1008.64 1008.77 1009.03 1009.42 1009.92 1010.51 1011.15 1011.81 1012.45 1013.06 1013.63 1014.15
1013.53 1013.39 1013.23 1013.05 1012.85 1012.64 1012.42 1012.22 1012.05 1011.93 1011.87 1011.86 1011.89 1011.95 1012.01 1012.05 1012.04 1011.98 1011.86 1011.68 1011.46 1011.20 1010.92 1010.62 1010.32 1010.01 1009.70 1009.40 1009.13 1008.91 1008.78 1008.75 1008.85 1009.08 1009.44 1009.91 1010.45 1011.03 1011.62 1012.19 1012.72 1013.21 1013.67
1012.97 1012.82 1012.65 1012.45 1012.24 1012.02 1011.79 1011.58 1011.39 1011.25 1011.16 1011.12 1011.13 1011.17 1011.24 1011.30 1011.34 1011.35 1011.33 1011.27 1011.17 1011.04 1010.87 1010.67 1010.44 1010.18 1009.90 1009.62 1009.35 1009.14 1009.01 1008.98 1009.08 1009.30 1009.64 1010.07 1010.55 1011.07 1011.57 1012.05 1012.48 1012.87 1013.25
1012.38 1012.21 1012.03 1011.82 1011.60 1011.37 1011.13 1010.91 1010.71 1010.55 1010.44 1010.38 1010.38 1010.41 1010.48 1010.56 1010.65 1010.73 1010.79 1010.82 1010.82 1010.78 1010.71 1010.59 1010.42 1010.22 1009.98 1009.74 1009.51 1009.34 1009.24 1009.24 1009.36 1009.59 1009.93 1010.33 1010.77 1011.21 1011.63 1012.00 1012.33 1012.63 1012.92
1011.81 1011.61 1011.40 1011.19 1010.96 1010.72 1010.48 1010.25 1010.05 1009.88 1009.76 1009.69 1009.68 1009.71 1009.78 1009.88 1009.99 1010.11 1010.22 1010.32 1010.39 1010.42 1010.40 1010.34 1010.23 1010.07 1009.89 1009.70 1009.54 1009.42 1009.39 1009.45 1009.62 1009.88 1010.23 1010.62 1011.03 1011.42 1011.76 1012.05 1012.29 1012.50 1012.71
1011.26 1011.04 1010.81 1010.58 1010.33 1010.09 1009.85 1009.62 1009.41 1009.25 1009.13 1009.05 1009.04 1009.06 1009.13 1009.24 1009.36 1009.50 1009.64 1009.76 1009.86 1009.92 1009.95 1009.92 1009.85 1009.74 1009.61 1009.49 1009.39 1009.36 1009.40 1009.54 1009.78 1010.10 1010.48 1010.89 1011.28 1011.64 1011.94 1012.18 1012.35 1012.51 1012.67
1010.76 1010.51 1010.25 1010.00 1009.74 1009.48 1009.24 1009.01 1008.81 1008.64 1008.52 1008.45 1008.43 1008.45 1008.51 1008.61 1008.73 1008.87 1009.00 1009.13 1009.23 1009.31 1009.34 1009.34 1009.30 1009.23 1009.16 1009.10 1009.08 1009.13 1009.27 1009.49 1009.81 1010.20 1010.63 1011.07 1011.48 1011.85 1012.14 1012.36 1012.52 1012.66 1012.81
1010.29 1010.00 1009.72 1009.43 1009.16 1008.89 1008.64 1008.41 1008.21 1008.04 1007.92 1007.85 1007.82 1007.83 1007.88 1007.96 1008.06 1008.18 1008.30 1008.41 1008.51 1008.58 1008.62 1008.64 1008.62 1008.60 1008.58 1008.59 1008.64 1008.77 1008.99 1009.30 1009.69 1010.15 1010.64 1011.13 1011.59 1011.99 1012.32 1012.58 1012.77 1012.94 1013.12
1009.80 1009.48 1009.17 1008.86 1008.56 1008.28 1008.02 1007.79 1007.59 1007.42 1007.30 1007.22 1007.18 1007.17 1007.20 1007.26 1007.33 1007.43 1007.52 1007.62 1007.70 1007.77 1007.82 1007.85 1007.87 1007.89 1007.92 1007.99 1008.12 1008.32 1008.61 1008.98 1009.44 1009.96 1010.51 1011.06 1011.58 1012.05 1012.45 1012.77 1013.05 1013.29 1013.54
1009.28 1008.93 1008.58 1008.25 1007.94 1007.64 1007.38 1007.14 1006.94 1006.78 1006.65 1006.56 1006.50 1006.48 1006.48 1006.50 1006.55 1006.61 1006.68 1006.76 1006.84 1006.91 1006.98 1007.04 1007.10 1007.16 1007.25 1007.37 1007.56 1007.81 1008.15 1008.57 1009.07 1009.63 1010.23 1010.84 1011.43 1011.98 1012.47 1012.90 1013.28 1013.63 1013.98
Thickness
5728 5726 5726 5725 5724 5723 5722 5722 5722 5722 5722 5721 5721 5721 5720 5719 5718 5718 5719 5720 5722 5723 5724 5725 5726 5726 5725 5725 5725 5725 5724 5724 5724 5724 5724 5724 5723 5723 5722 5721 5720 5719 5718
5722 5720 5719 5719 5718 5717 5716 5716 5716 5716 5717 5717 5718 5718 5718 5718 5718 5717 5717 5718 5719 5721 5723 5724 5725 5726 5726 5725 5724 5724 5724 5723 5723 5723 5723 5723 5723 5722 5722 5721 5720 5719 5718
5715 5713 5712 5711 5711 5710 5710 5710 5710 5711 5711 5712 5712 5713 5714 5715 5716 5716 5716 5716 5717 5719 5721 5723 5724 5725 5726 5725 5725 5724 5724 5723 5723 5723 5722 5722 5722 5722 5721 5720 5720 5719 5718
5707 5706 5704 5703 5703 5703 5702 5703 5703 5704 5705 5706 5707 5708 5710 5712 5713 5714 5715 5715 5716 5718 5720 5721 5723 5724 5725 5725 5725 5724 5724 5723 5723 5722 5722 5722 5721 5721 5720 5720 5719 5718 5717
5699 5698 5696 5695 5695 5694 5694 5695 5696 5696 5697 5699 5701 5704 5706 5708 5710 5711 5713 5715 5715 5716 5717 5719 5720 5722 5724 5725 5725 5724 5724 5723 5723 5723 5722 5722 5721 5721 5720 5719 5719 5718 5717
5691 5689 5688 5687 5686 5686 5686 5686 5687 5689 5690 5692 5695 5699 5702 5705 5707 5709 5711 5714 5715 5715 5715 5716 5717 5719 5722 5723 5724 5724 5724 5723 5723 5723 5722 5722 5722 5721 5720 5719 5718 5718 5717
5683 5682 5680 5679 5678 5677 5677 5677 5678 5680 5682 5685 5687 5690 5697 5701 5704 5707 5709 5711 5713 5714 5714 5714 5715 5716 5719 5721 5722 5723 5723 5723 5723 5723 5723 5723 5722 5721 5720 5720 5719 5718 5717
5675 5674 5673 5671 5670 5669 5669 5669 5669 5670 5672 5675 5677 5679 5683 5690 5697 5703 5705 5707 5709 5711 5712 5713 5713 5714 5716 5719 5722 5723 5723 5723 5723 5724 5723 5724 5723 5722 5721 5720 5719 5718 5718
5667 5666 5665 5664 5663 5662 5661 5660 5660 5661 5661 5664 5667 5669 5671 5675 5683 5693 5697 5701 5703 5705 5707 5710 5711 5712 5714 5716 5719 5721 5723 5724 5724 5724 5724 5724 5724 5723 5722 5721 5720 5719 5718
5659 5659 5657 5656 5655 5654 5653 5653 5653 5652 5653 5653 5657 5660 5662 5666 5669 5677 5686 5692 5695 5698 5702 5704 5708 5711 5712 5715 5717 5720 5722 5723 5724 5724 5725 5725 5724 5724 5723 5722 5721 5720 5719
5652 5651 5650 5649 5648 5647 5646 5645 5645 5645 5644 5645 5646 5649 5653 5657 5661 5664 5671 5679 5685 5691 5696 5700 5704 5707 5710 5712 5715 5718 5721 5723 5724 5725 5725 5725 5725 5724 5724 5723 5722 5721 5720
5645 5644 5643 5641 5640 5639 5638 5638 5637 5637 5636 5637 5638 5640 5642 5645 5649 5653 5659 5666 5673 5682 5690 5696 5700 5703 5707 5709 5713 5716 5719 5721 5723 5725 5725 5726 5725 5725 5725 5724 5723 5721 5720
5637 5636 5635 5633 5631 5630 5630 5629 5628 5628 5628 5628 5630 5631 5633 5636 5639 5643 5648 5654 5662 5672 5681 5689 5695 5699 5702 5706 5709 5713 5716 5719 5722 5723 5724 5725 5726 5726 5725 5724 5723 5722 5721
5632 5630 5628 5625 5623 5621 5620 5619 5618 5618 5619 5620 5621 5623 5624 5627 5630 5634 5638 5643 5650 5659 5669 5678 5686 5692 5696 5700 5705 5708 5712 5716 5719 5721 5723 5724 5725 5725 5725 5724 5724 5723 5722
5627 5625 5621 5618 5616 5613 5611 5610 5609 5608 5608 5609 5611 5613 5616 5618 5621 5626 5630 5634 5638 5645 5656 5667 5675 5682 5688 5694 5699 5702 5707 5712 5715 5717 5720 5722 5723 5724 5724 5723 5723 5722 5721
5622 5618 5615 5611 5608 5605 5603 5601 5599 5599 5599 5600 5601 5603 5606 5609 5612 5616 5621 5626 5630 5635 5643 5655 5662 5670 5678 5685 5691 5696 5700 5706 5709 5712 5715 5718 5720 5721 5721 5722 5722 5721 5720
5616 5612 5608 5604 5601 5598 5596 5593 5591 5590 5590 5591 5592 5594 5597 5599 5603 5607 5611 5617 5622 5627 5634 5644 5652 5660 5667 5675 5681 5687 5692 5697 5701 5705 5709 5712 5714 5716 5718 5719 5719 5719 5718
5610 5606 5602 5598 5594 5592 5589 5586 5584 5584 5583 5583 5584 5585 5587 5590 5594 5597 5601 5607 5613 5619 5625 5633 5640 5648 5657 5665 5671 5677 5682 5687 5692 5696 5701 5704 5707 5710 5713 5714 5715 5715 5716
5604 5600 5595 5591 5588 5585 5582 5580 5578 5577 5576 5576 5576 5577 5579 5581 5584 5587 5592 5597 5603 5610 5616 5623 5630 5638 5647 5654 5660 5666 5670 5675 5680 5685 5690 5694 5698 5702 5706 5708 5710 5711 5713
5598 5594 5589 5585 5582 5578 5575 5573 5572 5570 5569 5569 5568 5569 5570 5572 5575 5578 5582 5587 5593 5599 5606 5614 5621 5628 5635 5644 5651 5655 5659 5663 5668 5673 5677 5682 5687 5693 5698 5702 5705 5707 5709
5593 5588 5583 5579 5575 5571 5569 5567 5565 5564 5562 5561 5561 5561 5562 5563 5566 5568 5572 5577 5582 5588 5595 5603 5611 5617 5625 5633 5641 5647 5650 5653 5657 5661 5666 5671 5677 5683 5689 5694 5698 5702 5704
5587 5581 5577 5573 5569 5566 5564 5560 5558 5556 5555 5553 5553 5552 5552 5554 5557 5560 5564 5568 5572 5578 5585 5593 5601 5608 5616 5624 5632 5638 5642 5646 5648 5652 5657 5659 5666 5672 5679 5685 5691 5695 5699
5581 5575 5571 5566 5563 5559 5556 5553 5550 5548 5547 5545 5544 5543 5544 5546 5547 5549 5553 5558 5563 5569 5575 5583 5592 5600 5607 5615 5623 5629 5635 5640 5643 5645 5648 5649 5653 5660 5667 5674 5682 5688 5692
5575 5570 5565 5561 5557 5554 5550 5547 5543 5540 5538 5537 5535 5534 5533 5534 5535 5537 5540 5545 5551 5557 5565 5573 5582 5591 5598 5606 5613 5621 5628 5631 5632 5636 5641 5641 5643 5648 5655 5663 5670 5678 5683
5570 5565 5560 5556 5551 5549 5545 5540 5536 5532 5530 5529 5527 5526 5525 5525 5525 5525 5528 5533 5538 5545 5551 5559 5568 5578 5587 5595 5603 5610 5618 5623 5625 5627 5631 5636 5636 5639 5643 5650 5657 5665 5672
5564 5559 5555 5551 5546 5543 5539 5534 5529 5525 5523 5521 5519 5517 5516 5516 5516 5515 5517 5521 5527 5533 5538 5546 5555 5564 5574 5584 5593 5602 5611 5617 5621 5622 5625 5630 5631 5634 5635 5638 5645 5653 5659